NUSTAR

Last updated on Tue Sep 16 2025 00:03:34 GMT+0000 (Coordinated Universal Time)

1 38358U 12031A 25258.66668981 .00020744 00000+0 13657-2 0 9996 2 38358 6.0275 287.7236 0008301 344.1849 306.0903 15.04803669 1306
UTC large
Height (km)
Speed (km/s)
/
Latitude / Longitude
Inclination (degrees)
Orbital Period (minutes)
Azimuth
Elevation
Range (km)
Doppler Factor

Next 0 passes for location: London (51.5072 / 0.1276)

Sorry there are no passes over London.